Location: Fouquenies
(49.4624°N, 2.0492°E)
Time: 06:54:44
(UTC+00:00)

TIGRISAT - Visible Passes

Search period start: 06 December 2023 00:00
Search period end: 16 December 2023 00:00
Orbit: 598 x 676 km, 97.7° (Epoch: 05 December)

Date Brightness Start Highest point End Pass type
(mag) Time Alt. Az. Time Alt. Az. Time Alt. Az.
06 Dec ? 16:41:15 10° NNE 16:45:33 46° E 16:49:43 10° S visible
06 Dec ? 18:18:14 10° N 18:21:45 23° WNW 18:25:12 10° WSW visible
07 Dec ? 17:03:43 10° NNE 17:08:11 77° ESE 17:12:30 10° S visible
07 Dec ? 18:41:29 10° NNW 18:44:05 15° WNW 18:46:38 10° W visible
08 Dec ? 17:26:20 10° N 17:30:45 65° WNW 17:35:00 10° SSW visible
08 Dec ? 19:06:14 10° NW 19:06:19 10° NW 19:06:24 10° NW visible
09 Dec ? 17:49:04 10° N 17:53:12 40° WNW 17:57:14 10° SW visible
10 Dec ? 16:35:08 10° NNE 16:39:18 40° E 16:43:20 10° SSE visible
10 Dec ? 18:11:58 10° N 18:15:35 25° WNW 18:19:09 10° WSW visible
11 Dec ? 16:57:32 10° NNE 17:01:56 67° ESE 17:06:11 10° S visible
11 Dec ? 18:35:06 10° NNW 18:37:54 17° WNW 18:40:40 10° W visible
12 Dec ? 17:20:05 10° N 17:24:29 74° WNW 17:28:45 10° SSW visible
12 Dec ? 18:58:57 10° NW 19:00:08 11° NW 19:01:20 10° WNW visible
13 Dec ? 17:42:46 10° N 17:46:57 44° WNW 17:51:00 10° SW visible
14 Dec ? 16:28:56 10° NNE 16:32:56 35° E 16:36:51 10° SSE visible
14 Dec ? 18:05:36 10° N 18:09:20 28° WNW 18:12:59 10° WSW visible
15 Dec ? 16:51:16 10° NNE 16:55:34 58° E 16:59:46 10° S visible
15 Dec ? 18:28:38 10° NNW 18:31:38 18° WNW 18:34:35 10° WSW visible
